ATLAS 5 CENTAUR DEB, 44848

Orbit data source: Space-Track

ATLAS 5 CENTAUR DEB, 44848 is space debris in HEO originally from a launch on Wed, 17 Sep 2014 UTC launched from the Air Force Eastern Test Range (AFETR). Debris objects in space refer to the collection of defunct objects orbiting the Earth. Examples of debris include non-operational satellites, rocket bodies, and fragments generated from explosions, collisions, or faulty payload assembly.

Loading next visibility...
Identifier
44848, 2014-055CG
Orbit
HEO
Country
Flag of USUS
Related business
Flag of USUnited Launch Alliance/Lockheed Martin (US)
Manufacturer
Unknown
Mission
Spacecraft
Bus & Motor
Unknown
Mass
Unknown
Launch date (UTC)
2014-09-17 (12 years ago)
Launch vehicle
Unknown
Launch site
Air Force Eastern Test Range (AFETR)
Object type
Payload
Rocket body
Debris
Shape & HBR
Unknown shape, 1.1 m
Radar Cross Section
Medium (>0.1 m² and <1 m²)

Expand to show TLE details & history
Last TLE update: 1 week ago

TLE from 1 week ago
0 ATLAS 5 CENTAUR DEB
1 44848U 14055CG  26227.50346914 -.00000142  00000-0  00000+0 0  9991
2 44848  20.7514 112.3645 4945708 221.8054  87.4272  1.88592491 48380
Epoch: 2026-08-15T12:04Z
TLE epoch observation values (Epoch: 2026-08-15T12:04:59.733Z)
Latitude
0.00006°
Longitude
-32.71808°
Altitude
26,759.917 km
Speed
3.107 km/s
True Right ascension
07h 29m 46s
True Declination
0° 00' 00"
Sunlit
Object was in daylight at epoch
Visualization orbit readout
Latitude
Unknown
Longitude
Unknown
Altitude
Unknown
Speed
Unknown
Apparent Right ascension
Unknown
Apparent Declination
Unknown
Sunlit
N/A
Visualization observer readout
Local Sidereal Time
15:53:05
Azimuth
Unknown
Elevation
Unknown
Doppler factor
Unknown
Orbital elements
Apogee altitude
34,983.706 km
Perigee altitude
7,609.48 km
Semi-major axis
27,674.73 km
Eccentricity
0.49457
Inclination
20.7514°
RAAN
112.3645°
Arg. of periapsis
221.8054°
True anomaly
138.20723°
Mean anomaly
87.4272°
Eccentric anomaly
113.42795°
Mean motion
0.47143 °/min
Orbital period
763.63 mins
BSTAR
0
Loading maneuver chart data...
Computing Atmospheric mass density...

Documentation

Showing up to 5 results
|